Cloud_Cover
0 0 8 100 100 100 99 100 100 100 100 100 100 100 99 100 100 77 57 23 6 8 48 7 5 5 5 5 5 5 0 1 0 0 0 0 0 0 0 0 0 0 0
0 0 0 82 100 100 82 77 95 52 24 98 99 38 5 79 100 45 4 1 3 5 0 3 1 0 0 0 0 0 0 0 0 0 0 0 1 0 0 0 0 0 0
0 0 0 1 14 5 5 4 5 2 1 0 7 69 100 94 5 0 0 0 1 0 0 0 0 0 0 0 0 0 0 0 0 0 0 0 0 0 4 1 0 0 1
0 0 0 0 0 5 5 5 4 3 0 5 4 5 5 4 0 0 5 2 0 0 0 0 0 0 0 0 0 0 0 0 0 0 0 0 0 0 0 0 0 5 5
0 0 0 0 5 5 5 5 5 6 6 5 1 0 5 0 0 5 5 0 0 0 0 0 0 0 0 0 0 0 0 0 0 0 0 0 0 0 0 0 0 0 5
0 0 0 0 5 1 5 5 6 31 6 5 5 0 0 2 4 0 0 0 0 0 0 0 0 0 0 0 3 2 0 0 0 0 0 0 0 0 0 0 0 0 0
0 0 0 0 4 5 5 39 6 5 5 5 5 5 5 5 3 0 0 0 0 0 0 0 0 0 0 4 5 2 0 2 3 0 0 0 0 0 0 0 0 0 0
0 0 0 2 1 5 5 8 5 5 0 5 5 29 5 0 0 0 0 0 0 0 0 0 0 0 5 5 0 4 5 5 4 1 0 0 0 0 0 0 0 0 0
0 0 0 3 5 3 5 5 5 0 0 0 5 5 1 5 0 0 0 0 0 0 0 0 5 5 5 0 5 5 5 5 5 5 5 0 1 4 0 0 0 0 5
0 0 2 4 5 4 5 5 0 0 0 0 0 2 5 5 0 0 0 0 0 0 0 2 5 1 5 5 5 5 5 5 5 5 3 5 1 0 0 0 0 0 5
0 0 0 2 5 5 5 4 0 0 0 0 1 5 5 5 0 0 0 0 0 5 5 5 5 5 5 5 5 5 5 5 5 5 1 0 0 0 0 0 0 4 5
0 0 0 5 5 4 5 4 0 0 0 5 5 5 4 0 0 0 5 0 0 3 4 5 5 5 37 5 5 5 5 5 1 0 0 0 0 2 0 0 5 5 5
0 0 0 4 5 5 5 0 5 0 5 5 5 3 0 0 2 0 2 0 2 5 32 23 5 52 48 34 54 5 4 0 0 0 2 4 0 0 0 5 5 41 86
0 0 0 2 5 5 5 4 4 5 5 5 5 5 2 0 2 0 0 5 19 76 46 20 61 31 5 12 5 0 0 0 0 4 0 0 0 0 9 63 63 97 13
3 0 0 3 5 5 5 3 5 5 5 5 5 5 4 5 5 4 39 79 64 28 50 63 15 13 17 5 5 5 0 0 4 0 0 4 1 5 100 100 100 95 92
5 0 3 5 5 5 0 3 5 3 5 5 5 5 5 5 5 58 100 59 74 57 65 36 35 45 5 5 5 5 4 0 0 4 5 3 5 6 100 92 100 100 100
5 5 5 5 5 3 0 0 0 4 5 5 5 5 5 35 96 77 80 98 77 98 99 89 58 57 5 5 5 5 3 4 4 5 5 5 5 33 5 5 97 24 99
5 5 5 5 4 0 0 0 5 5 5 5 50 76 88 41 66 90 45 80 100 97 100 94 70 8 5 5 2 4 5 4 1 5 5 31 5 5 100 98 97 95 52
5 6 5 5 0 0 0 0 5 5 76 71 47 75 71 76 14 77 96 77 94 100 99 42 13 6 5 5 5 5 5 5 4 5 22 11 26 60 100 100 86 90 5
5 5 2 0 0 5 5 5 5 5 40 62 48 36 17 64 83 92 94 100 99 53 71 65 5 5 5 2 5 15 5 5 5 25 33 68 88 100 100 100 88 39 7
5 5 5 5 5 5 5 11 48 83 100 23 5 7 39 100 70 100 98 32 5 52 20 5 5 5 0 0 5 32 98 42 57 59 71 5 58 100 100 100 59 66 100
1 5 5 5 5 5 36 99 100 67 6 5 5 5 5 67 99 54 6 7 5 24 5 5 4 0 0 0 3 81 100 99 91 82 44 77 99 100 94 87 100 100 99
5 5 5 5 10 70 66 71 14 5 5 5 5 14 100 56 6 5 8 6 14 5 5 0 0 0 0 0 2 54 100 99 100 99 99 94 74 5 5 82 100 97 87
94 60 36 65 58 66 49 15 11 61 21 5 56 70 5 5 5 5 13 5 5 2 0 0 0 2 5 5 18 95 84 93 78 67 68 5 5 5 52 73 29 84 100
36 26 57 28 5 5 20 62 34 5 25 90 29 5 5 5 8 5 5 5 2 0 0 0 5 5 5 20 100 100 100 100 100 100 5 5 20 88 77 86 99 100 100
55 41 47 49 33 21 30 7 8 76 58 6 5 5 5 5 5 5 5 4 0 4 4 1 5 5 5 36 92 100 100 100 100 64 42 96 100 100 100 100 100 100 100